Regional Weather Roundup
Issued by NWS

Home | Current Version | Previous Version | Text Only | Print | Product List | Glossary Off
Versions: 1 2 3 4 5 6 7 8 9 10 11 12 13 14 15 16 17 18 19 20 21 22 23 24 25 26 27 28 29 30 31 32 33 34 35 36 37 38 39 40 41 42 43 44 45 46 47 48 49 50

962
ASUS44 KJAN 251710
RWRMS

MISSISSIPPI HOURLY WEATHER ROUNDUP
NATIONAL WEATHER SERVICE JACKSON MS
1200 PM CDT FRI JUL 25 2014

NOTE: "FAIR: INDICATES FEW OR NO CLOUDS BELOW 12,000 FEET WITH NO
SIGNIFICANT WEATHER AND/OR OBSTRUCTIONS TO VISIBILITY.

MSZ001>002-007>008-010>013-018>021-025>028-034>036-251800-
NORTHWEST MISSISSIPPI

CITY           SKY/WX    TMP DP  RH WIND       PRES   REMARKS
CLARKSDALE     FAIR      81  64  57 CALM      30.06F
CLEVELAND      FAIR      80  65  60 CALM      30.05F
GREENWOOD      SUNNY     82  65  56 NW7       30.05F
GREENVILLE     SUNNY     82  64  54 W3        30.05F
GRENADA        FAIR      81  63  54 W6        30.05F
OLIVE BRANCH   MOSUNNY   79  64  61 CALM      30.06S
OXFORD         FAIR      77  63  61 NW6       30.07F
TUNICA         SUNNY     79  63  57 CALM      30.06S
$$

MSZ003>006-009-014>017-022>024-029>033-037>039-251800-
NORTHEAST MISSISSIPPI

CITY           SKY/WX    TMP DP  RH WIND       PRES   REMARKS
BELMONT        FAIR      79  65  63 CALM      30.04F
COLUMBUS AFB   MOSUNNY   83  66  56 NW6       30.04F
CORINTH        FAIR      81  63  54 CALM      30.05S
GOLDN TRIANGLE MOSUNNY   82  66  57 W7        30.05F
STARKVILLE     FAIR      81  68  65 NW5       30.04F
TUPELO         PTSUNNY   81  62  52 N5        30.04F
$$

MSZ040-058-251800-
CENTRAL MISSISSIPPI

CITY           SKY/WX    TMP DP  RH WIND       PRES   REMARKS
JACKSON INTL   PTSUNNY   86  72  62 SW3       30.04F HX  92
JACKSON HAWKNS MOSUNNY   87  70  56 NW10      30.05F HX  92
MERIDIAN KEY   MOSUNNY   87  71  58 CALM      30.03F HX  93
MERIDIAN NAS   MOSUNNY   88  70  55 NW8       30.03F HX  93
RAYMOND        FAIR      86  81  84 NW7       30.04F HX 102
VICKSBURG      SUNNY     88  73  61 MISG      30.04F HX  95
$$

MSZ059>079-251800-
SOUTH MISSISSIPPI

CITY           SKY/WX    TMP DP  RH WIND       PRES   REMARKS
BROOKHAVEN     FAIR      86  73  66 W3        30.07F HX  93
COLUMBIA       FAIR      88  75  66 W7        30.04S HX  97
HATTIESBURG    MOSUNNY   89  74  60 MISG      30.05S HX  98
MCCOMB         MOSUNNY   88  71  57 VRB6      30.05S HX  94
NATCHEZ        MOSUNNY   86  73  66 W7        30.06S HX  93
PINE BELT      PTSUNNY   88  73  62 W7        30.06F HX  96
$$

MSZ080>082-251800-
COASTAL MISSISSIPPI

CITY           SKY/WX    TMP DP  RH WIND       PRES   REMARKS
BAY ST LOUIS   MOSUNNY  N/A N/A N/A MISG      30.04S
BILOXI         MOSUNNY   90  77  65 SW10      30.03S HX 102
PASCAGOULA     PTSUNNY   88  74  63 CALM      30.03S HX  96
GULFPORT       SUNNY     93  74  53 VRB7      30.02F HX 103
$$



USA.gov is the U.S. government's official web portal to all federal, state and local government web resources and services.